Tracking 29493 objects as of 8-Sep-2024
HD Live streaming from Space Station
objects crossing your sky now

LANDSAT 4

Track LANDSAT 4 now!
10-day predictions
LANDSAT 4 is classified as:


NORAD ID: 13367
Int'l Code: 1982-072A
Perigee: 449.0 km
Apogee: 460.6 km
Inclination: 98.2 °
Period: 93.5 minutes
Semi major axis: 6825 km
RCS: 7.754 m2 (large)
Launch date: July 16, 1982
Source: United States (US)
Launch site: AIR FORCE WESTERN TEST RANGE (AFWTR)
Your satellite tracking list
Your tracking list is empty




NASA's NSSDC Master Catalog

Two Line Element Set (TLE):
1 13367U 82072A   24251.74209830  .00042993  00000-0  10924-2 0  9991
2 13367  98.1966 327.9987 0008532 164.5318 195.6188 15.39477983711320
Source of the keplerian elements: AFSPC